Danbury, CT

8:42 PM EDT on August 21, 2017 (GMT -0400)
Danbury Municipal

Weather History for KDXR - April, 2014

Change the Weather History Date:

Wednesday, April 2, 2014

  Actual Average Record
Temperature  
Mean Temperature 46 °F -  
Max Temperature 57 °F 55 °F 78 °F (1967)
Min Temperature 36 °F 34 °F 17 °F (1964)
Degree Days  
Heating Degree Days 20    
Moisture  
Dew Point 36 °F    
Average Humidity 77    
Maximum Humidity 93    
Minimum Humidity 45    
Precipitation  
Precipitation 0.00 in - - ()
Sea Level Pressure  
Sea Level Pressure 30.09 in    
Wind  
Wind Speed 3 mph (SSW)    
Max Wind Speed 10 mph    
Max Gust Speed -    
Visibility 10 miles    
Events      
Averages and records for this station are not official NWS values.
T = Trace of Precipitation, MM = Missing Value Source: NWS Daily Summary

Daily Weather History Graph

Daily Weather History Graph

Search for Another Location

Airport or City:

Trip Planner

Search our weather history database for the weather conditions in past years. The results will help you decide how hot, cold, wet, or windy it might be!

Date:

Astronomy

Apr. 02, 2014 Rise Set
Actual Time 6:35 AM EDT 7:20 PM EDT
Civil Twilight 6:07 AM EDT 7:48 PM EDT
Nautical Twilight 5:34 AM EDT 8:21 PM EDT
Astronomical Twilight 5:00 AM EDT 8:55 PM EDT
Moon 8:16 AM EDT (4/2) 10:42 PM EDT (4/2)
Length of Visible Light 13h 40m
Length of Day
12h 44m
Waxing Crescent, 10% of the Moon is Illuminated
Apr 2
Waxing Crescent
Apr 7
First Quarter
Apr 15
Full
Apr 22
Last Quarter
Apr 29
New

Hourly Weather History & Observations

Time (EDT) Temp. Windchill Dew Point Humidity Pressure Visibility Wind Dir Wind Speed Gust Speed Precip Events Conditions
12:53 AM 37.9 °F - 32.0 °F 79% 30.09 in 10.0 mi Calm Calm - N/A   Clear
1:53 AM 37.0 °F 34.5 °F 33.1 °F 86% 30.09 in 10.0 mi ESE 3.5 mph - N/A   Clear
2:45 AM 36.0 °F 32.1 °F 34.0 °F 93% 30.07 in 10.0 mi ESE 4.6 mph - N/A   Scattered Clouds
2:53 AM 36.0 °F - 34.0 °F 93% 30.08 in 9.0 mi Calm Calm - N/A   Mostly Cloudy
3:53 AM 37.9 °F 33.5 °F 36.0 °F 93% 30.09 in 10.0 mi South 5.8 mph - N/A   Overcast
4:53 AM 37.9 °F 34.4 °F 36.0 °F 93% 30.08 in 10.0 mi SE 4.6 mph - N/A   Overcast
5:53 AM 37.9 °F 35.5 °F 36.0 °F 93% 30.10 in 10.0 mi Variable 3.5 mph - N/A   Overcast
6:53 AM 37.9 °F - 36.0 °F 93% 30.11 in 8.0 mi Calm Calm - N/A   Overcast
8:53 AM 41.0 °F 38.0 °F 37.0 °F 86% 30.13 in 10.0 mi Variable 4.6 mph - N/A   Scattered Clouds
9:53 AM 44.1 °F 41.5 °F 36.0 °F 73% 30.14 in 10.0 mi SSW 4.6 mph - N/A   Clear
10:53 AM 45.0 °F 40.1 °F 35.1 °F 68% 30.14 in 10.0 mi SSW 9.2 mph - N/A   Partly Cloudy
11:53 AM 46.9 °F - 37.0 °F 68% 30.12 in 10.0 mi WSW 10.4 mph - N/A   Mostly Cloudy
12:53 PM 48.0 °F - 37.0 °F 66% 30.11 in 10.0 mi WSW 4.6 mph - N/A   Overcast
1:53 PM 50.0 °F - 37.0 °F 61% 30.09 in 10.0 mi Calm Calm - N/A   Mostly Cloudy
2:53 PM 52.0 °F - 36.0 °F 54% 30.06 in 10.0 mi WSW 6.9 mph - N/A   Scattered Clouds
3:53 PM 55.9 °F - 35.1 °F 45% 30.04 in 10.0 mi WSW 6.9 mph - N/A   Clear
4:53 PM 55.9 °F - 35.1 °F 45% 30.04 in 10.0 mi Calm Calm - N/A   Clear
6:53 PM 54.0 °F - 37.9 °F 55% 30.05 in 10.0 mi SSW 5.8 mph - N/A   Clear
7:53 PM 48.9 °F - 39.0 °F 69% 30.06 in 10.0 mi South 5.8 mph - N/A   Clear
8:53 PM 44.1 °F - 37.9 °F 79% 30.09 in 10.0 mi Calm Calm - N/A   Clear
9:53 PM 41.0 °F - 37.0 °F 86% 30.09 in 10.0 mi Calm Calm - N/A   Clear
10:53 PM 37.0 °F 33.3 °F 35.1 °F 93% 30.10 in 10.0 mi SW 4.6 mph - N/A   Clear
11:53 PM 36.0 °F - 34.0 °F 93% 30.11 in 7.0 mi Calm Calm - N/A   Clear